All Stations Radar Satellite Rainfall Station Map Enhanced Site
Observations: Wind Gusts Humidity Temperature    
Forecasts: Wind Gusts Humidity Temperature    

Valley Center (907, 908, 909, 1030, 6926) Station Data (Station Map)

Red Flag Warning: No
Fire Weather Zone: 250
SDGE Region: North East
Lat/Lon: 33.236/-117.001

Observations

Time (PDT)Wind Spd/GustTempRHFuel Moisture
7/28 7:10amW 1 G 170°77%-
7/28 7:00amNNW 1 G 268°81%-
7/28 6:50amNNW 1 G 268°81%-
7/28 6:40amN 1 G 168°86%-
7/28 6:30amENE 1 G 268°97%-
7/28 6:20amENE 1 G 167°100%-
7/28 6:10amE 1 G 167°100%-
7/28 6:00amESE 1 G 267°100%-
7/28 5:50amESE 1 G 367°100%-
7/28 5:40amE 1 G 367°100%-
7/28 5:30amESE 2 G 467°100%-
7/28 5:20amESE 1 G 467°100%-
7/28 5:10amESE 1 G 367°100%-
7/28 5:00amESE 2 G 366°100%-
7/28 4:50amSE 2 G 366°100%-
7/28 4:40amSE 1 G 367°100%-
7/28 4:30amNE 1 G 167°100%-
7/28 4:20amNNE 1 G 367°100%-
7/28 4:10amWNW 2 G 467°95%-
7/28 4:00amW 2 G 568°78%-
7/28 3:50amW 1 G 368°75%-
7/28 3:40amWSW 1 G 169°73%-
7/28 3:30amNW 1 G 269°73%-
7/28 3:20amWSW 1 G 269°72%-
7/28 3:10amWSW 1 G 169°72%-
7/28 3:00amNW 1 G 269°71%-
7/28 2:50amS 1 G 169°72%-
7/28 2:40amNW 1 G 269°72%-
7/28 2:30amNW 1 G 269°72%-
7/28 2:20amWSW 1 G 169°73%-
7/28 2:10amSSW 1 G 169°73%-
7/28 2:00amSE 1 G 169°72%-
7/28 1:50amESE 1 G 370°71%-
7/28 1:40amE 1 G 370°70%-
7/28 1:30amNNE 1 G 170°69%-
7/28 1:20amNNW 1 G 270°69%-
7/28 1:10amNNW 1 G 270°69%-
7/28 1:00amNNW 1 G 170°70%-
7/28 12:50amWNW 1 G 270°69%-
7/28 12:40amWNW 1 G 370°68%-
7/28 12:30amWNW 1 G 370°68%-
7/28 12:20amNW 1 G 370°67%-
7/28 12:10amNW 2 G 470°67%-
7/28 12:00amW 1 G 370°68%-
7/27 11:50pmWSW 1 G 270°67%-
7/27 11:40pmSW 1 G 170°67%-
7/27 11:30pmWSW 1 G 370°66%-
7/27 11:20pmWNW 1 G 370°65%-
7/27 11:10pmNNW 2 G 571°64%-
7/27 11:00pmNW 2 G 471°64%-
7/27 10:50pmNW 1 G 171°64%-
7/27 10:40pmNW 1 G 171°63%-
7/27 10:30pmNW 1 G 372°63%-
7/27 10:20pmNW 1 G 372°64%-
7/27 10:10pmNNW 1 G 372°64%-
7/27 10:00pmNW 1 G 372°64%-
7/27 9:50pmW 1 G 273°64%-
7/27 9:40pmW 1 G 373°64%-
7/27 9:30pmSW 1 G 273°64%-
7/27 9:20pmSE 1 G 273°64%-
7/27 9:10pmNNE 1 G 173°63%-
7/27 9:00pmNE 1 G 273°63%-
7/27 8:50pmN 1 G 273°63%-
7/27 8:40pmWNW 1 G 373°63%-
7/27 8:30pmW 1 G 274°62%-
7/27 8:20pmW 1 G 274°62%-
7/27 8:10pmWSW 1 G 474°61%-
7/27 8:00pmWNW 1 G 475°58%-
7/27 7:50pmNW 2 G 475°57%-
7/27 7:40pmWNW 2 G 475°57%-
7/27 7:30pmNW 2 G 575°57%-
7/27 7:20pmNW 3 G 575°56%-
7/27 7:10pmWNW 3 G 676°55%-
7/27 7:00pmW 4 G 877°53%-
7/27 6:50pmW 4 G 778°51%-
7/27 6:40pmNW 6 G 1280°49%-
7/27 6:30pmNW 7 G 1181°48%-
7/27 6:20pmNW 6 G 1285°41%-
7/27 6:10pmW 3 G 887°39%-
7/27 6:00pmWSW 4 G 787°40%-
7/27 5:50pmSW 3 G 787°40%-
7/27 5:40pmSSW 2 G 788°38%-
7/27 5:30pmS 2 G 788°37%-
7/27 5:20pmW 1 G 388°37%-
7/27 5:10pmENE 1 G 587°38%-
7/27 5:00pmNE 2 G 587°41%-
7/27 4:50pmENE 3 G 687°41%-
7/27 4:40pmENE 2 G 787°41%-
7/27 4:30pmNE 2 G 587°42%-
7/27 4:20pmENE 3 G 687°42%-
7/27 4:10pmN 2 G 687°40%-
7/27 4:00pmWNW 2 G 787°41%-
7/27 3:50pmNNW 2 G 687°41%-
7/27 3:40pmNW 3 G 687°41%-
7/27 3:30pmNW 2 G 1187°41%-
7/27 3:20pmNW 2 G 887°42%-
7/27 3:10pmNW 4 G 886°43%-
7/27 3:00pmNNW 2 G 786°43%-
7/27 2:50pmWNW 3 G 787°44%-
7/27 2:40pmSW 2 G 585°47%-
7/27 2:30pmNW 4 G 784°49%-
7/27 2:20pmNNW 2 G 884°50%-
7/27 2:10pmNW 4 G 781°54%-
7/27 2:00pmWNW 4 G 980°57%-
7/27 1:50pmNW 5 G 1080°59%-
7/27 1:40pmNW 6 G 1380°59%-
7/27 1:30pmNW 6 G 1279°60%-
7/27 1:20pmWNW 8 G 1381°56%-
7/27 1:10pmWNW 8 G 1583°52%-
7/27 1:00pmWSW 5 G 1185°48%-
7/27 12:50pmWSW 6 G 1288°43%-
7/27 12:40pmWSW 3 G 887°42%-
7/27 12:30pmW 2 G 585°43%-
7/27 12:20pmSE 1 G 585°44%-
7/27 12:10pmSE 1 G 483°46%-
7/27 12:00pmSSE 1 G 483°47%-
7/27 11:50amE 1 G 481°49%-
7/27 11:40amE 2 G 681°50%-
7/27 11:30amESE 2 G 581°50%-
7/27 11:20amE 1 G 480°52%-
7/27 11:10amNNW 2 G 678°54%-
7/27 11:00amWNW 3 G 878°54%-
7/27 10:50amWNW 3 G 878°56%-
7/27 10:40amWNW 4 G 777°56%-
7/27 10:30amWNW 5 G 977°56%-
7/27 10:20amW 6 G 1077°56%-
7/27 10:10amW 5 G 1078°54%-
7/27 10:00amWSW 2 G 778°55%-
7/27 9:50amSSW 1 G 478°55%-
7/27 9:40amSSW 1 G 677°57%-
7/27 9:30amNNW 1 G 476°60%-
7/27 9:20amNW 1 G 374°63%-
7/27 9:10amWNW 3 G 673°65%-
7/27 9:00amW 2 G 573°67%-
7/27 8:50amW 3 G 573°66%-
7/27 8:40amW 1 G 472°67%-
7/27 8:30amWNW 1 G 272°68%-
7/27 8:20amW 2 G 472°69%-
7/27 8:10amW 1 G 472°68%-
7/27 8:00amWNW 1 G 371°70%-
7/27 7:50amW 1 G 170°71%-
7/27 7:40amSSE 1 G 170°74%-
7/27 7:30amSSW 1 G 269°77%-
7/27 7:20amNW 1 G 168°83%-
7/27 7:10amNNE 1 G 167°87%-
7/27 7:00amNE 1 G 167°92%-
7/27 6:50amN 1 G 167°99%-
7/27 6:40amSE 1 G 166°100%-
7/27 6:30amSE 1 G 166°100%-
7/27 6:20amN 1 G 166°100%-
7/27 6:10amNNE 1 G 166°100%-
7/27 6:00amSSE 1 G 166°100%-